📊 Raw Sensor Data

Showing records 38801 to 38825 of 84,936 total

ID Distance (ft) Battery V Battery A Int Temp (°F) Int Humid (%) Ext Temp (°F) Solar V RSSI SNR Time Stamp
46148 15.2 3.94 -5 58 44 58 0.00 -71 8 07/13/2025 03:15 AM
46147 15.2 4.00 -5 58 44 59 0.00 -70 8 07/13/2025 03:00 AM
46146 15.2 4.00 -5 59 44 60 0.00 -72 7 07/13/2025 02:45 AM
46145 15.2 3.94 -5 59 44 60 0.00 -71 7 07/13/2025 02:30 AM
46144 15.2 3.95 -5 60 44 61 0.00 -72 8 07/13/2025 02:15 AM
46143 15.2 3.95 -5 60 44 61 0.00 -71 7 07/13/2025 02:00 AM
46142 15.2 3.95 -5 60 44 61 0.00 -72 8 07/13/2025 01:45 AM
46141 15.2 4.01 -5 61 44 61 0.00 -72 8 07/13/2025 01:30 AM
46140 15.2 3.95 -5 62 44 63 0.00 -72 7 07/13/2025 01:15 AM
46139 15.2 3.95 -5 62 44 63 0.00 -72 8 07/13/2025 01:00 AM
46138 15.2 3.95 -5 63 45 64 0.00 -71 8 07/13/2025 12:45 AM
46137 15.2 3.95 -5 63 45 64 0.00 -71 7 07/13/2025 12:30 AM
46136 15.2 3.95 -5 63 45 64 0.00 -71 7 07/13/2025 12:15 AM
46135 15.2 3.95 -5 63 45 65 0.00 -71 8 07/13/2025 12:00 AM
46134 15.2 3.95 -5 63 45 65 0.00 -72 8 07/12/2025 11:45 PM
46133 15.2 3.95 -5 64 45 65 0.00 -72 8 07/12/2025 11:30 PM
46132 15.2 3.96 -5 64 46 65 0.00 -71 8 07/12/2025 11:15 PM
46131 15.2 4.01 -5 64 46 65 0.00 -70 8 07/12/2025 11:00 PM
46130 15.2 4.01 -5 65 47 65 0.00 -70 8 07/12/2025 10:45 PM
46129 15.2 3.96 -5 65 47 66 0.00 -72 7 07/12/2025 10:30 PM
46128 15.2 4.02 -5 66 47 67 0.00 -70 8 07/12/2025 10:15 PM
46127 15.2 4.02 -5 67 48 67 0.00 -71 8 07/12/2025 10:00 PM
46126 15.2 3.96 -5 68 49 68 0.00 -69 8 07/12/2025 09:45 PM
46125 15.2 3.96 -5 69 50 69 0.10 -72 8 07/12/2025 09:30 PM
46124 15.2 3.96 -5 70 51 69 0.10 -73 8 07/12/2025 09:15 PM